SCP
0 0 0 0 0 0 0 0 0 0 0 0 0 0 0 0 0 0 0 0 0 0 0 0 0 0 0 0 0 0 0 0 0 0 0 0 0 0 0 0 0 0 0 0 0 0 0
0 0 0 0 0 0 0 0 0 0 0 0 0 0 0 0 0 0 0 0 0 0 0 0 0 0 0 0 0 0 0 0 0 0 0 0 0 0 0 0 0 0 0 0 0 0 0
0 0 0 0 0 0 0 0 0 0 0 0 0 0 0 0 0 0 0 0 0 0 0 0 0 0 0 0 0 0 0 0 0 0 0 0 0 0 0 0 0 0 0 0 0 0 -0
0 0 0 0 0 0 0 0 0 0 0 0 0 0 0 0 0 0 0 0 0 0 0 0 0 0 0 0 0 0 0 0 0 0 0 0 0 0 0 0 0 0 0 0 0 0 0
0 0 0 0 0 0 0 0 0 0 0 0 0 0 0 0 0 0 0 0 0 0 0 0 0 0 0 0 0 0 0 0 0 0 0 0 0 0 0 0 0 0 0 0 0 0 0
0 0 0 0 0 0 0 0 0 0 0 0 0 0 0 0 0 0 0 0 -0 0 0 0 0 0 0 0 0 0 0 0 0 0 0 0 0 0 0 0 0 0 0 0 0 0 0
0 0 0 0 0 0 0 0 0 0 0 0 0 0 0 0 0 0 0 0 0 0 0 0 0 0 0 0 0 0 0 0 0 0 0 0 0 0 0 0 0 0 0 0 0 0 0
0 0 0 0 0 0 0 0 0 0 0 0 0 0 0 0 0 0 0 0 0 0 0 0 0 0 -0 0 0 0 0 0 0 0 0 0 0 0 0 0 0 0 0 0 0 0 0
0 0 0 0 0 0 0 0 0 0 0 0 0 0 0 0 0 0 0 0 0 0 0 0 0 0 0 0 0 0 0 0 0 0 0 0 0 0 0 0 0 0 0 0 0 0 0
0 0 0 0 0 0 0 0 0 0 0 0 0 0 0 0 -0 0 0 0 0 0 0 0 0 0 0 0 0 0 -0 0 0 0 0 0 0 0 0 0 0 0 0 0 0 0 0
0 0 0 0 0 0 0 0 0 0 0 0 0 0 0 0 0 0 0 0 0 0 0 0 0 0 0 0 0 0 0 -0 0 0 0 0 0 0 0 0 0 0 0 0 0 0 0
0 0 0 0 0 0 0 0 0 0 0 0 0 0 0 0 0 0 0 0 0 0 0 0 0 0 0 0 0 0 0 -0 -0 0 0 0 0 0 0 0 0 0 0 0 0 0 0
0 0 0 0 0 0 0 0 0 0 0 0 0 0 0 0 0 0 0 0 0 0 0 0 0 0 0 0 0 0 0 0 0 0 0 0 0 0 0 0 0 0 0 0 0 0 0
0 0 0 0 0 0 0 0 0 0 0 0 0 0 0 0 0 0 0 0 0 0 0 0 0 0 0 0 -0 -0 -0 -0 0 0 0 0 0 0 0 0 0 0 0 0 0 0 0
0 0 0 0 0 0 0 0 0 0 0 0 0 0 0 0 0 0 0 0 0 0 0 0 0 0 0 0 0 0 -0 -0 -0 -0 0 0 0 0 0 0 0 0 0 0 0 0 0
0 0 0 0 0 0 0 0 0 0 0 0 0 0 0 0 0 0 0 -0 0 0 0 0 0 0 0 0 0 0 0 0 0 -0 0 0 0 0 0 0 0 0 0 0 0 0 0
0 0 0 0 0 0 0 0 0 0 0 0 0 0 0 0 0 0 0 0 0 0 0 0 0 0 0 0 0 0 0 0 0 0 0 -0 0 0 0 0 0 0 0 0 0 0 0
0 0 0 0 0 0 0 0 0 0 0 0 0 0 0 0 0 0 0 0 0 0 0 0 0 0 -0 0 0 0 0 0 0 0 0 0 0 0 0 0 0 0 0 0 0 0 0
0 0 0 0 0 0 0 0 0 0 0 0 0 0 0 0 0 0 0 0 0 0 0 0 0 0 0 -0 -0 -0 0 0 0 0 0 0 0 0 0 0 0 0 0 0 0 0 0
0 0 0 0 0 0 0 0 0 0 0 0 0 0 0 0 0 0 0 0 0 0 0 0 0 0 0 -0 0 0 0 0 0 0 0 0 0 0 0 0 0 0 0 0 0 0 0
0 0 0 0 0 0 0 0 0 0 0 0 0 0 0 0 0 0 0 0 0 0 0 0 0 0 0 0 0 -0 0 0 0 0 0 0 0 0 0 0 0 0 0 0 0 0 0
0 0 0 0 0 0 0 0 0 0 0 0 0 0 0 0 0 0 0 0 0 0 0 0 0 0 0 0 0 0 0 0 0 0 0 0 0 0 0 0 0 0 0 0 0 0 0
0 0 0 0 0 0 0 0 0 0 0 0 0 0 0 0 0 0 0 0 0 0 0 0 0 0 0 0 0 0 0 0 0 0 0 0 0 0 0 0 0 0 0 0 0 0 0
0 0 0 0 0 0 0 0 0 0 0 0 0 0 0 0 0 0 0 0 0 0 0 0 0 0 0 0 0 0 0 0 0 0 0 0 0 0 0 0 0 0 0 0 0 0 0
0 0 0 0 0 0 0 0 0 0 0 0 0 0 0 0 0 0 0 0 0 0 0 0 0 0 0 0 0 0 0 0 0 0 0 0 0 0 0 0 0 0 0 0 0 0 0
0 0 0 0 0 0 0 0 0 0 0 0 -0 0 0 0 0 0 0 0 0 0 0 0 0 0 0 0 0 0 0 0 0 0 0 0 0 0 0 0 0 0 0 0 0 0 0
0 0 0 0 0 0 -0 0 0 0 0 0 -0 0 0 0 -0 0 0 0 0 0 0 0 0 0 0 0 0 0 0 0 0 0 0 0 0 0 0 0 0 0 0 0 0 0 0
0 0 0 0 0 0 0 0 0 0 0 0 -0 0 0 -0 0 0 0 0 0 -0 0 0 0 0 0 0 0 0 0 0 0 0 0 0 0 0 0 0 0 0 0 0 0 0 0
0 0 0 0 0 0 -0 -0 0 0 0 0 -0 0 0 0 -0 0 0 0 0 0 0 0 0 0 0 0 0 0 0 0 0 0 0 0 0 0 0 0 0 0 0 0 0 0 0
Wind_Speed_500mb
30 29 31 37 41 42 41 38 35 36 39 39 36 34 34 36 39 40 40 40 43 44 43 45 47 46 33 21 47 33 18 7 33 39 39 38 35 31 26 23 23 30 25 27 33 37 41
28 29 31 37 39 38 43 39 38 40 40 40 37 35 37 39 42 42 43 45 46 47 45 50 53 39 19 36 22 33 32 31 25 35 35 36 22 26 15 21 29 14 23 29 32 37 34
26 26 29 34 36 38 41 38 40 41 41 42 41 38 38 42 45 46 47 49 50 51 54 50 37 22 28 59 17 22 25 38 34 33 27 33 21 24 16 14 19 20 24 28 34 40 30
26 25 27 31 35 37 37 41 42 43 43 41 42 42 42 45 48 49 51 51 52 59 49 35 22 21 28 21 33 36 24 28 32 32 23 27 25 24 19 4 17 26 21 22 11 14 28
28 26 28 30 33 36 39 42 44 42 38 40 43 44 45 47 51 53 55 55 57 39 21 13 19 21 22 18 37 42 41 24 32 27 20 31 24 22 18 24 23 20 20 17 11 5 6
30 27 28 29 32 34 40 45 42 40 40 44 48 49 50 50 52 54 58 58 34 9 5 18 6 14 25 10 15 28 48 36 39 35 30 27 24 19 21 23 25 26 25 17 15 14 9
33 31 32 32 34 36 42 40 39 39 42 46 49 51 52 50 52 54 59 36 4 10 25 26 21 20 8 6 12 26 56 49 36 42 27 37 24 33 38 35 29 9 16 19 21 16 20
36 35 35 36 37 39 38 38 40 43 47 49 52 54 52 51 52 56 39 7 12 15 30 43 52 50 41 17 15 25 63 37 42 35 26 19 33 27 21 26 25 21 21 24 23 12 10
41 41 40 40 39 39 41 44 46 50 54 57 59 59 57 56 54 39 14 34 21 10 18 20 28 38 39 33 19 44 68 46 40 37 33 25 5 25 28 25 24 25 26 24 26 22 25
41 42 43 43 44 46 50 54 56 57 62 64 61 60 57 60 24 15 41 13 11 13 12 17 14 12 26 23 18 45 68 51 28 36 34 28 21 22 33 29 26 26 24 26 28 26 21
48 47 46 46 48 51 55 61 65 62 63 68 64 61 58 47 57 33 13 9 5 6 12 12 14 8 26 29 22 46 64 51 32 28 24 25 24 33 28 32 26 26 17 19 25 26 27
51 51 51 52 52 54 57 56 59 66 64 66 63 63 59 50 33 30 18 9 8 13 13 8 10 13 21 35 12 38 48 47 39 24 34 29 26 26 35 31 21 6 15 18 19 23 26
54 55 54 51 52 56 59 54 54 60 62 64 61 55 54 48 25 16 19 14 12 16 6 3 5 11 18 26 28 19 33 38 27 32 33 27 26 23 17 22 29 19 17 15 21 21 23
52 52 51 51 52 52 52 46 53 62 62 63 64 55 45 29 21 14 30 15 19 10 12 8 7 7 15 22 33 41 48 40 45 38 21 25 27 36 30 36 27 32 27 21 19 20 20
52 51 50 49 51 48 49 50 56 64 66 62 63 43 21 9 23 36 24 21 12 7 8 3 10 10 8 11 14 33 33 45 41 36 22 23 25 11 16 34 38 32 18 28 30 18 18
53 50 48 46 48 49 49 52 54 58 63 58 58 35 7 18 22 41 17 30 11 15 16 9 9 8 4 13 23 27 31 10 24 33 37 18 8 25 22 14 14 30 12 21 20 33 34
50 48 46 45 47 46 48 51 54 57 62 52 28 19 12 8 31 32 19 24 17 27 10 11 10 10 6 12 17 2 15 11 2 17 23 23 19 16 17 23 20 17 22 21 18 11 21
50 47 44 42 48 52 54 49 48 53 60 44 18 8 10 25 16 25 23 15 4 20 6 6 19 7 12 12 6 15 8 10 7 10 21 10 9 14 22 8 5 11 19 14 17 27 15
48 46 43 42 42 44 48 53 47 46 46 47 27 12 11 15 11 19 22 19 19 13 10 11 13 17 9 16 9 19 12 3 7 6 10 13 11 15 11 24 18 20 23 19 12 9 23
46 45 44 43 42 44 45 47 39 37 38 32 13 8 6 14 14 19 23 24 14 6 6 5 9 13 14 14 9 13 14 6 4 10 10 4 12 12 2 6 4 22 21 26 23 19 25
44 41 42 42 44 44 45 44 36 31 31 23 6 5 4 7 6 19 18 21 16 8 3 8 11 25 11 7 9 10 9 16 8 6 5 2 11 10 2 1 3 5 12 19 21 21 22
42 42 38 37 37 40 40 42 45 31 23 8 10 12 20 35 20 19 13 18 17 9 7 15 14 15 7 3 3 0 4 7 2 6 5 1 9 12 22 8 17 25 28 30 31 30 31
39 42 41 39 35 36 37 37 38 36 25 9 11 14 12 20 12 16 6 18 14 7 3 12 11 14 12 11 8 7 7 7 6 2 7 7 9 10 18 4 12 21 31 35 32 27 21
36 40 45 43 38 32 33 34 34 35 25 21 26 23 14 14 16 14 24 18 22 13 7 14 2 7 12 14 11 6 4 4 4 7 2 7 9 6 5 6 15 13 3 3 8 5 6
38 41 41 43 40 37 35 32 31 31 29 23 25 18 11 12 14 21 14 17 4 3 14 11 7 10 14 9 7 7 8 9 6 3 9 7 7 5 5 8 17 10 7 3 6 3 7
39 38 40 41 41 40 39 31 28 26 30 25 27 25 21 15 7 12 17 15 8 2 17 11 7 4 4 7 5 7 8 5 8 10 5 6 6 6 7 5 5 12 6 2 2 12 13
37 36 37 41 40 36 36 29 30 24 27 26 30 22 17 10 24 15 12 7 2 8 6 6 6 9 6 6 8 8 7 6 12 14 11 9 9 15 11 8 11 11 9 5 11 6 6
35 35 37 36 40 39 34 30 31 29 27 28 30 27 21 9 24 24 23 14 6 7 4 2 9 6 6 8 5 4 7 7 6 6 14 13 13 9 13 11 14 11 11 11 8 5 8
37 38 38 39 41 40 37 32 34 30 30 29 30 24 16 17 26 27 22 30 21 8 10 5 6 2 5 2 4 2 7 6 9 7 9 9 9 5 11 3 7 3 10 9 8 8 8
Wind_Direction_500mb
348 346 347 347 346 345 344 344 340 341 342 341 335 330 328 327 327 324 318 315 311 308 305 299 298 298 302 261 251 273 264 153 170 175 185 185 189 204 218 209 197 232 249 250 253 256 255
347 346 342 340 340 341 339 339 340 338 337 337 331 326 326 325 324 321 317 312 311 311 303 297 293 288 265 256 256 242 244 221 189 186 193 196 204 210 236 217 216 177 239 252 250 252 254
335 338 337 334 334 337 335 338 338 334 332 332 331 325 322 322 321 320 317 314 311 312 303 293 280 255 242 243 259 237 217 211 204 198 205 205 213 192 201 199 222 228 248 242 235 241 239
327 328 333 331 333 332 335 335 329 329 329 330 329 327 324 320 318 318 315 313 313 312 304 293 246 201 246 255 233 228 198 197 203 201 203 200 196 211 226 210 201 221 229 243 148 217 219
337 330 329 331 328 331 332 325 326 330 331 332 331 329 324 320 319 317 315 314 317 306 312 287 182 191 261 259 236 222 201 189 173 171 182 177 175 203 198 223 211 203 239 198 236 68 151
342 331 329 327 324 327 322 325 330 333 332 332 331 328 325 321 319 317 316 315 313 322 2 127 171 212 248 231 212 200 194 186 162 154 146 171 190 206 212 204 220 215 214 214 234 142 217
345 341 335 327 325 321 325 326 330 333 332 332 332 330 326 322 321 318 319 324 272 216 213 220 233 235 290 240 187 175 174 166 168 176 185 186 197 207 205 210 240 257 250 249 259 261 273
341 338 334 330 326 326 329 329 330 329 328 329 327 327 325 322 319 314 312 243 305 290 291 261 247 242 248 280 227 175 169 171 174 191 183 176 223 207 210 206 229 239 251 253 267 270 259
339 337 335 333 329 328 326 326 327 326 325 326 326 324 325 321 321 315 296 289 280 291 268 288 231 237 231 206 219 172 180 191 189 199 192 218 204 188 200 197 218 230 248 258 267 268 280
331 332 330 328 325 323 322 321 322 323 323 321 323 321 326 321 337 300 306 293 273 242 275 163 205 218 177 189 222 190 192 189 195 201 194 225 199 192 196 212 216 243 230 248 268 266 260
327 324 322 321 321 320 319 318 317 318 319 317 320 319 323 320 303 297 280 289 129 180 285 106 139 177 166 194 122 175 184 198 201 203 198 207 213 210 211 210 218 254 254 257 254 253 259
329 325 318 315 314 314 313 314 315 317 318 315 319 318 318 314 289 302 252 232 236 236 246 146 129 188 176 205 218 151 184 208 219 210 208 217 209 218 221 215 221 177 240 230 252 251 241
330 329 327 324 321 321 321 317 314 316 321 320 320 317 309 291 264 257 218 187 229 244 68 160 146 331 249 188 178 175 178 201 203 207 211 215 215 216 233 199 199 213 234 227 217 219 242
332 330 328 327 325 324 325 324 319 319 325 324 322 320 317 288 251 180 158 214 242 273 269 71 46 257 299 197 202 188 192 197 209 205 206 214 210 215 209 225 228 210 226 245 235 238 232
334 334 332 332 332 332 330 325 323 324 325 328 326 327 306 273 196 182 193 218 257 280 352 277 98 74 272 187 211 212 198 204 194 204 214 212 215 153 199 217 224 220 226 247 277 269 286
336 335 336 337 336 337 336 335 334 331 330 335 332 327 287 285 185 178 223 248 253 260 327 262 272 134 301 261 231 205 203 211 196 205 217 237 199 213 148 190 205 242 247 207 227 254 245
336 336 340 343 347 343 339 339 342 338 338 340 335 312 298 215 153 196 232 237 254 269 288 286 238 147 135 348 342 248 198 127 83 169 214 215 245 185 188 208 199 183 224 234 293 271 252
339 341 341 343 345 344 342 341 343 350 347 352 349 292 2 142 223 219 241 222 260 270 165 197 336 189 174 135 324 22 324 28 2 240 192 208 204 264 234 40 268 271 278 275 222 246 261
342 344 342 343 342 340 342 342 348 351 354 346 327 278 242 258 257 242 258 249 239 271 251 176 160 292 171 172 169 199 190 189 316 272 184 184 205 223 219 210 213 236 214 252 254 253 237
342 344 344 341 341 341 342 344 349 348 352 346 316 299 173 216 276 297 294 271 237 220 156 182 145 267 173 181 179 174 159 158 155 107 52 255 214 230 276 352 191 212 224 231 239 249 255
342 343 345 346 344 346 346 346 342 340 340 353 301 27 358 315 273 318 296 285 279 205 119 166 171 228 229 218 193 176 164 150 142 118 94 272 252 246 176 297 324 293 222 210 237 253 261
340 338 338 338 341 345 344 348 349 330 335 338 321 336 325 287 282 294 276 265 275 217 242 198 237 169 170 228 350 325 207 217 130 151 171 152 227 268 259 258 270 266 256 252 255 260 266
336 336 333 329 333 336 339 344 344 333 333 320 310 297 292 292 278 289 319 326 327 287 153 305 214 170 139 98 81 51 68 76 81 227 167 207 226 233 256 91 281 262 246 241 249 250 265
328 331 336 336 327 329 332 335 343 337 317 316 298 306 279 289 316 315 325 298 293 310 195 356 268 157 104 114 108 116 144 164 172 122 16 167 194 190 249 224 229 65 46 252 275 243 193
326 324 327 331 334 328 328 328 328 337 317 299 277 300 271 287 296 277 312 308 258 211 123 157 314 83 138 159 199 175 157 167 156 205 206 249 202 210 242 243 320 190 158 221 281 181 212
328 330 332 330 330 328 324 320 326 327 322 297 273 280 267 290 326 338 314 297 291 211 146 161 110 109 187 245 201 238 201 161 162 140 107 174 273 215 175 246 267 85 120 279 278 250 94
328 328 328 329 330 326 331 324 319 322 316 292 273 284 283 288 290 309 279 327 114 333 311 161 146 189 244 239 226 229 197 275 178 182 164 170 187 208 190 238 275 101 153 232 238 81 78
323 317 322 320 329 332 327 318 314 315 313 298 276 273 275 248 272 274 284 272 260 190 245 132 210 187 203 222 243 176 249 185 214 151 168 171 183 192 212 218 248 121 179 242 28 343 338
317 312 314 311 320 325 327 311 316 319 304 292 276 279 270 252 271 283 264 281 267 278 307 182 30 75 36 255 244 253 201 196 227 199 188 214 219 198 204 233 106 191 307 325 319 325 332
Wind_Speed_850mb
30 29 31 37 41 42 41 38 35 36 39 39 36 34 34 36 39 40 40 40 43 44 43 45 47 46 33 21 47 33 18 7 33 39 39 38 35 31 26 23 23 30 25 27 33 37 41
28 29 31 37 39 38 43 39 38 40 40 40 37 35 37 39 42 42 43 45 46 47 45 50 53 39 19 36 22 33 32 31 25 35 35 36 22 26 15 21 29 14 23 29 32 37 34
26 26 29 34 36 38 41 38 40 41 41 42 41 38 38 42 45 46 47 49 50 51 54 50 37 22 28 59 17 22 25 38 34 33 27 33 21 24 16 14 19 20 24 28 34 40 30
26 25 27 31 35 37 37 41 42 43 43 41 42 42 42 45 48 49 51 51 52 59 49 35 22 21 28 21 33 36 24 28 32 32 23 27 25 24 19 4 17 26 21 22 11 14 28
28 26 28 30 33 36 39 42 44 42 38 40 43 44 45 47 51 53 55 55 57 39 21 13 19 21 22 18 37 42 41 24 32 27 20 31 24 22 18 24 23 20 20 17 11 5 6
30 27 28 29 32 34 40 45 42 40 40 44 48 49 50 50 52 54 58 58 34 9 5 18 6 14 25 10 15 28 48 36 39 35 30 27 24 19 21 23 25 26 25 17 15 14 9
33 31 32 32 34 36 42 40 39 39 42 46 49 51 52 50 52 54 59 36 4 10 25 26 21 20 8 6 12 26 56 49 36 42 27 37 24 33 38 35 29 9 16 19 21 16 20
36 35 35 36 37 39 38 38 40 43 47 49 52 54 52 51 52 56 39 7 12 15 30 43 52 50 41 17 15 25 63 37 42 35 26 19 33 27 21 26 25 21 21 24 23 12 10
41 41 40 40 39 39 41 44 46 50 54 57 59 59 57 56 54 39 14 34 21 10 18 20 28 38 39 33 19 44 68 46 40 37 33 25 5 25 28 25 24 25 26 24 26 22 25
41 42 43 43 44 46 50 54 56 57 62 64 61 60 57 60 24 15 41 13 11 13 12 17 14 12 26 23 18 45 68 51 28 36 34 28 21 22 33 29 26 26 24 26 28 26 21
48 47 46 46 48 51 55 61 65 62 63 68 64 61 58 47 57 33 13 9 5 6 12 12 14 8 26 29 22 46 64 51 32 28 24 25 24 33 28 32 26 26 17 19 25 26 27
51 51 51 52 52 54 57 56 59 66 64 66 63 63 59 50 33 30 18 9 8 13 13 8 10 13 21 35 12 38 48 47 39 24 34 29 26 26 35 31 21 6 15 18 19 23 26
54 55 54 51 52 56 59 54 54 60 62 64 61 55 54 48 25 16 19 14 12 16 6 3 5 11 18 26 28 19 33 38 27 32 33 27 26 23 17 22 29 19 17 15 21 21 23
52 52 51 51 52 52 52 46 53 62 62 63 64 55 45 29 21 14 30 15 19 10 12 8 7 7 15 22 33 41 48 40 45 38 21 25 27 36 30 36 27 32 27 21 19 20 20
52 51 50 49 51 48 49 50 56 64 66 62 63 43 21 9 23 36 24 21 12 7 8 3 10 10 8 11 14 33 33 45 41 36 22 23 25 11 16 34 38 32 18 28 30 18 18
53 50 48 46 48 49 49 52 54 58 63 58 58 35 7 18 22 41 17 30 11 15 16 9 9 8 4 13 23 27 31 10 24 33 37 18 8 25 22 14 14 30 12 21 20 33 34
50 48 46 45 47 46 48 51 54 57 62 52 28 19 12 8 31 32 19 24 17 27 10 11 10 10 6 12 17 2 15 11 2 17 23 23 19 16 17 23 20 17 22 21 18 11 21
50 47 44 42 48 52 54 49 48 53 60 44 18 8 10 25 16 25 23 15 4 20 6 6 19 7 12 12 6 15 8 10 7 10 21 10 9 14 22 8 5 11 19 14 17 27 15
48 46 43 42 42 44 48 53 47 46 46 47 27 12 11 15 11 19 22 19 19 13 10 11 13 17 9 16 9 19 12 3 7 6 10 13 11 15 11 24 18 20 23 19 12 9 23
46 45 44 43 42 44 45 47 39 37 38 32 13 8 6 14 14 19 23 24 14 6 6 5 9 13 14 14 9 13 14 6 4 10 10 4 12 12 2 6 4 22 21 26 23 19 25
44 41 42 42 44 44 45 44 36 31 31 23 6 5 4 7 6 19 18 21 16 8 3 8 11 25 11 7 9 10 9 16 8 6 5 2 11 10 2 1 3 5 12 19 21 21 22
42 42 38 37 37 40 40 42 45 31 23 8 10 12 20 35 20 19 13 18 17 9 7 15 14 15 7 3 3 0 4 7 2 6 5 1 9 12 22 8 17 25 28 30 31 30 31
39 42 41 39 35 36 37 37 38 36 25 9 11 14 12 20 12 16 6 18 14 7 3 12 11 14 12 11 8 7 7 7 6 2 7 7 9 10 18 4 12 21 31 35 32 27 21
36 40 45 43 38 32 33 34 34 35 25 21 26 23 14 14 16 14 24 18 22 13 7 14 2 7 12 14 11 6 4 4 4 7 2 7 9 6 5 6 15 13 3 3 8 5 6
38 41 41 43 40 37 35 32 31 31 29 23 25 18 11 12 14 21 14 17 4 3 14 11 7 10 14 9 7 7 8 9 6 3 9 7 7 5 5 8 17 10 7 3 6 3 7
39 38 40 41 41 40 39 31 28 26 30 25 27 25 21 15 7 12 17 15 8 2 17 11 7 4 4 7 5 7 8 5 8 10 5 6 6 6 7 5 5 12 6 2 2 12 13
37 36 37 41 40 36 36 29 30 24 27 26 30 22 17 10 24 15 12 7 2 8 6 6 6 9 6 6 8 8 7 6 12 14 11 9 9 15 11 8 11 11 9 5 11 6 6
35 35 37 36 40 39 34 30 31 29 27 28 30 27 21 9 24 24 23 14 6 7 4 2 9 6 6 8 5 4 7 7 6 6 14 13 13 9 13 11 14 11 11 11 8 5 8
37 38 38 39 41 40 37 32 34 30 30 29 30 24 16 17 26 27 22 30 21 8 10 5 6 2 5 2 4 2 7 6 9 7 9 9 9 5 11 3 7 3 10 9 8 8 8
Wind_Direction_850mb
348 346 347 347 346 345 344 344 340 341 342 341 335 330 328 327 327 324 318 315 311 308 305 299 298 298 302 261 251 273 264 153 170 175 185 185 189 204 218 209 197 232 249 250 253 256 255
347 346 342 340 340 341 339 339 340 338 337 337 331 326 326 325 324 321 317 312 311 311 303 297 293 288 265 256 256 242 244 221 189 186 193 196 204 210 236 217 216 177 239 252 250 252 254
335 338 337 334 334 337 335 338 338 334 332 332 331 325 322 322 321 320 317 314 311 312 303 293 280 255 242 243 259 237 217 211 204 198 205 205 213 192 201 199 222 228 248 242 235 241 239
327 328 333 331 333 332 335 335 329 329 329 330 329 327 324 320 318 318 315 313 313 312 304 293 246 201 246 255 233 228 198 197 203 201 203 200 196 211 226 210 201 221 229 243 148 217 219
337 330 329 331 328 331 332 325 326 330 331 332 331 329 324 320 319 317 315 314 317 306 312 287 182 191 261 259 236 222 201 189 173 171 182 177 175 203 198 223 211 203 239 198 236 68 151
342 331 329 327 324 327 322 325 330 333 332 332 331 328 325 321 319 317 316 315 313 322 2 127 171 212 248 231 212 200 194 186 162 154 146 171 190 206 212 204 220 215 214 214 234 142 217
345 341 335 327 325 321 325 326 330 333 332 332 332 330 326 322 321 318 319 324 272 216 213 220 233 235 290 240 187 175 174 166 168 176 185 186 197 207 205 210 240 257 250 249 259 261 273
341 338 334 330 326 326 329 329 330 329 328 329 327 327 325 322 319 314 312 243 305 290 291 261 247 242 248 280 227 175 169 171 174 191 183 176 223 207 210 206 229 239 251 253 267 270 259
339 337 335 333 329 328 326 326 327 326 325 326 326 324 325 321 321 315 296 289 280 291 268 288 231 237 231 206 219 172 180 191 189 199 192 218 204 188 200 197 218 230 248 258 267 268 280
331 332 330 328 325 323 322 321 322 323 323 321 323 321 326 321 337 300 306 293 273 242 275 163 205 218 177 189 222 190 192 189 195 201 194 225 199 192 196 212 216 243 230 248 268 266 260
327 324 322 321 321 320 319 318 317 318 319 317 320 319 323 320 303 297 280 289 129 180 285 106 139 177 166 194 122 175 184 198 201 203 198 207 213 210 211 210 218 254 254 257 254 253 259
329 325 318 315 314 314 313 314 315 317 318 315 319 318 318 314 289 302 252 232 236 236 246 146 129 188 176 205 218 151 184 208 219 210 208 217 209 218 221 215 221 177 240 230 252 251 241
330 329 327 324 321 321 321 317 314 316 321 320 320 317 309 291 264 257 218 187 229 244 68 160 146 331 249 188 178 175 178 201 203 207 211 215 215 216 233 199 199 213 234 227 217 219 242
332 330 328 327 325 324 325 324 319 319 325 324 322 320 317 288 251 180 158 214 242 273 269 71 46 257 299 197 202 188 192 197 209 205 206 214 210 215 209 225 228 210 226 245 235 238 232
334 334 332 332 332 332 330 325 323 324 325 328 326 327 306 273 196 182 193 218 257 280 352 277 98 74 272 187 211 212 198 204 194 204 214 212 215 153 199 217 224 220 226 247 277 269 286
336 335 336 337 336 337 336 335 334 331 330 335 332 327 287 285 185 178 223 248 253 260 327 262 272 134 301 261 231 205 203 211 196 205 217 237 199 213 148 190 205 242 247 207 227 254 245
336 336 340 343 347 343 339 339 342 338 338 340 335 312 298 215 153 196 232 237 254 269 288 286 238 147 135 348 342 248 198 127 83 169 214 215 245 185 188 208 199 183 224 234 293 271 252
339 341 341 343 345 344 342 341 343 350 347 352 349 292 2 142 223 219 241 222 260 270 165 197 336 189 174 135 324 22 324 28 2 240 192 208 204 264 234 40 268 271 278 275 222 246 261
342 344 342 343 342 340 342 342 348 351 354 346 327 278 242 258 257 242 258 249 239 271 251 176 160 292 171 172 169 199 190 189 316 272 184 184 205 223 219 210 213 236 214 252 254 253 237
342 344 344 341 341 341 342 344 349 348 352 346 316 299 173 216 276 297 294 271 237 220 156 182 145 267 173 181 179 174 159 158 155 107 52 255 214 230 276 352 191 212 224 231 239 249 255
342 343 345 346 344 346 346 346 342 340 340 353 301 27 358 315 273 318 296 285 279 205 119 166 171 228 229 218 193 176 164 150 142 118 94 272 252 246 176 297 324 293 222 210 237 253 261
340 338 338 338 341 345 344 348 349 330 335 338 321 336 325 287 282 294 276 265 275 217 242 198 237 169 170 228 350 325 207 217 130 151 171 152 227 268 259 258 270 266 256 252 255 260 266
336 336 333 329 333 336 339 344 344 333 333 320 310 297 292 292 278 289 319 326 327 287 153 305 214 170 139 98 81 51 68 76 81 227 167 207 226 233 256 91 281 262 246 241 249 250 265
328 331 336 336 327 329 332 335 343 337 317 316 298 306 279 289 316 315 325 298 293 310 195 356 268 157 104 114 108 116 144 164 172 122 16 167 194 190 249 224 229 65 46 252 275 243 193
326 324 327 331 334 328 328 328 328 337 317 299 277 300 271 287 296 277 312 308 258 211 123 157 314 83 138 159 199 175 157 167 156 205 206 249 202 210 242 243 320 190 158 221 281 181 212
328 330 332 330 330 328 324 320 326 327 322 297 273 280 267 290 326 338 314 297 291 211 146 161 110 109 187 245 201 238 201 161 162 140 107 174 273 215 175 246 267 85 120 279 278 250 94
328 328 328 329 330 326 331 324 319 322 316 292 273 284 283 288 290 309 279 327 114 333 311 161 146 189 244 239 226 229 197 275 178 182 164 170 187 208 190 238 275 101 153 232 238 81 78
323 317 322 320 329 332 327 318 314 315 313 298 276 273 275 248 272 274 284 272 260 190 245 132 210 187 203 222 243 176 249 185 214 151 168 171 183 192 212 218 248 121 179 242 28 343 338
317 312 314 311 320 325 327 311 316 319 304 292 276 279 270 252 271 283 264 281 267 278 307 182 30 75 36 255 244 253 201 196 227 199 188 214 219 198 204 233 106 191 307 325 319 325 332